| time (UTC) | temp C | wind direction | speed KPH | gust KPH | rain 1hr cm | rain 24hr cm | rain mn cm | humidity % | barometer mb |
| 20260906225039 | 36 | 83 | 11.3 | 20.9 | 0.00 | 0.00 | 0.00 | 44 | 1010.8 |
| 20260906224605 | 36 | 178 | 6.4 | 12.9 | 0.00 | 0.00 | 0.00 | 45 | 1011.0 |
| 20260906224039 | 36 | 188 | 6.4 | 17.7 | 0.00 | 0.00 | 0.00 | 45 | 1010.9 |
| 20260906223538 | 36 | 171 | 6.4 | 24.1 | 0.00 | 0.00 | 0.00 | 44 | 1010.9 |
| 20260906223057 | 36 | 155 | 12.9 | 24.1 | 0.00 | 0.00 | 0.00 | 44 | 1010.9 |
| 20260906222537 | 36 | 163 | 8.0 | 14.5 | 0.00 | 0.00 | 0.00 | 45 | 1011.0 |
| 20260906222038 | 36 | 0 | 3.2 | 20.9 | 0.00 | 0.00 | 0.00 | 45 | 1011.0 |
| 20260906221557 | 36 | 139 | 4.8 | 20.9 | 0.00 | 0.00 | 0.00 | 45 | 1011.0 |
| 20260906221038 | 36 | 151 | 14.5 | 32.2 | 0.00 | 0.00 | 0.00 | 45 | 1011.0 |
| 20260906220538 | 36 | 135 | 6.4 | 32.2 | 0.00 | 0.00 | 0.00 | 47 | 1010.9 |
| 20260906220100 | 36 | 194 | 8.0 | 17.7 | 0.00 | 0.00 | 0.00 | 48 | 1010.9 |
| 20260906215538 | 36 | 174 | 6.4 | 14.5 | 0.00 | 0.00 | 0.00 | 49 | 1011.0 |
| 20260906215038 | 36 | 191 | 9.7 | 19.3 | 0.00 | 0.00 | 0.00 | 47 | 1011.0 |
| 20260906214607 | 36 | 175 | 8.0 | 25.7 | 0.00 | 0.00 | 0.00 | 45 | 1011.0 |
| 20260906214038 | 36 | 147 | 9.7 | 25.7 | 0.00 | 0.00 | 0.00 | 46 | 1011.1 |
| 20260906213538 | 36 | 143 | 4.8 | 16.1 | 0.00 | 0.00 | 0.00 | 46 | 1011.1 |
| 20260906213058 | 36 | 146 | 9.7 | 16.1 | 0.00 | 0.00 | 0.00 | 50 | 1011.3 |
| 20260906212540 | 36 | 187 | 6.4 | 14.5 | 0.00 | 0.00 | 0.00 | 46 | 1011.3 |
| 20260906212039 | 36 | 321 | 4.8 | 14.5 | 0.00 | 0.00 | 0.00 | 45 | 1011.4 |
| 20260906211601 | 36 | 123 | 6.4 | 16.1 | 0.00 | 0.00 | 0.00 | 46 | 1011.5 |
| 20260906211038 | 36 | 101 | 4.8 | 16.1 | 0.00 | 0.00 | 0.00 | 46 | 1011.6 |
| 20260906210538 | 36 | 86 | 4.8 | 16.1 | 0.00 | 0.00 | 0.00 | 47 | 1011.7 |
| 20260906210107 | 36 | 116 | 6.4 | 16.1 | 0.00 | 0.00 | 0.00 | 46 | 1011.8 |
| 20260906205538 | 36 | 118 | 4.8 | 16.1 | 0.00 | 0.00 | 0.00 | 46 | 1011.9 |
| 20260906205038 | 36 | 129 | 6.4 | 16.1 | 0.00 | 0.00 | 0.00 | 47 | 1012.0 |
| 20260906204606 | 36 | 177 | 1.6 | 19.3 | 0.00 | 0.00 | 0.00 | 48 | 1012.0 |
| 20260906204037 | 36 | 82 | 12.9 | 19.3 | 0.00 | 0.00 | 0.00 | 47 | 1012.1 |
| 20260906203541 | 36 | 151 | 8.0 | 17.7 | 0.00 | 0.00 | 0.00 | 49 | 1012.2 |
| 20260906203057 | 36 | 148 | 6.4 | 19.3 | 0.00 | 0.00 | 0.00 | 48 | 1012.2 |
| 20260906202537 | 36 | 90 | 4.8 | 19.3 | 0.00 | 0.00 | 0.00 | 48 | 1012.2 |
| 20260906202038 | 36 | 133 | 9.7 | 24.1 | 0.00 | 0.00 | 0.00 | 49 | 1012.2 |
| 20260906201606 | 36 | 190 | 9.7 | 24.1 | 0.00 | 0.00 | 0.00 | 51 | 1012.3 |
| 20260906201036 | 36 | 127 | 9.7 | 19.3 | 0.00 | 0.00 | 0.00 | 50 | 1012.4 |
| 20260906200538 | 36 | 130 | 4.8 | 19.3 | 0.00 | 0.00 | 0.00 | 49 | 1012.5 |
| 20260906200103 | 36 | 136 | 14.5 | 19.3 | 0.00 | 0.00 | 0.00 | 48 | 1012.5 |
| 20260906195538 | 36 | 123 | 9.7 | 20.9 | 0.00 | 0.00 | 0.00 | 49 | 1012.6 |
| 20260906195039 | 35 | 197 | 8.0 | 22.5 | 0.00 | 0.00 | 0.00 | 50 | 1012.5 |
| 20260906194558 | 36 | 160 | 9.7 | 22.5 | 0.00 | 0.00 | 0.00 | 48 | 1012.7 |
| 20260906194038 | 36 | 117 | 8.0 | 20.9 | 0.00 | 0.00 | 0.00 | 49 | 1012.7 |
| 20260906193537 | 36 | 107 | 9.7 | 20.9 | 0.00 | 0.00 | 0.00 | 48 | 1012.8 |
| 20260906193057 | 35 | 128 | 8.0 | 19.3 | 0.00 | 0.00 | 0.00 | 48 | 1012.8 |
| 20260906192538 | 35 | 124 | 6.4 | 25.7 | 0.00 | 0.00 | 0.00 | 49 | 1012.8 |
| 20260906192037 | 35 | 159 | 9.7 | 25.7 | 0.00 | 0.00 | 0.00 | 49 | 1012.9 |
| 20260906191602 | 35 | 137 | 6.4 | 22.5 | 0.00 | 0.00 | 0.00 | 50 | 1013.0 |
| 20260906191039 | 35 | 140 | 11.3 | 24.1 | 0.00 | 0.00 | 0.00 | 49 | 1013.0 |
| 20260906190538 | 35 | 107 | 11.3 | 24.1 | 0.00 | 0.00 | 0.00 | 49 | 1013.0 |
| 20260906190112 | 35 | 190 | 14.5 | 24.1 | 0.00 | 0.00 | 0.00 | 48 | 1013.1 |
| 20260906185538 | 35 | 184 | 9.7 | 24.1 | 0.00 | 0.00 | 0.00 | 48 | 1013.1 |
| 20260906185037 | 35 | 143 | 12.9 | 27.4 | 0.00 | 0.00 | 0.00 | 49 | 1013.1 |
| 20260906184603 | 35 | 126 | 12.9 | 27.4 | 0.00 | 0.00 | 0.00 | 48 | 1013.2 |
| 20260906184038 | 35 | 145 | 9.7 | 22.5 | 0.00 | 0.00 | 0.00 | 50 | 1013.3 |
| 20260906183537 | 35 | 123 | 11.3 | 25.7 | 0.00 | 0.00 | 0.00 | 49 | 1013.3 |
| 20260906183105 | 35 | 146 | 12.9 | 25.7 | 0.00 | 0.00 | 0.00 | 51 | 1013.4 |
| 20260906182539 | 35 | 128 | 9.7 | 24.1 | 0.00 | 0.00 | 0.00 | 52 | 1013.5 |
| 20260906182044 | 35 | 159 | 9.7 | 25.7 | 0.00 | 0.00 | 0.00 | 49 | 1013.5 |
| 20260906181559 | 35 | 134 | 11.3 | 25.7 | 0.00 | 0.00 | 0.00 | 49 | 1013.6 |
| 20260906181038 | 34 | 137 | 9.7 | 20.9 | 0.00 | 0.00 | 0.00 | 53 | 1013.7 |
| 20260906180539 | 34 | 130 | 11.3 | 19.3 | 0.00 | 0.00 | 0.00 | 51 | 1013.7 |
| 20260906180108 | 34 | 163 | 6.4 | 19.3 | 0.00 | 0.00 | 0.00 | 54 | 1013.8 |
| 20260906175538 | 34 | 133 | 9.7 | 19.3 | 0.00 | 0.00 | 0.00 | 53 | 1013.9 |
| 20260906175038 | 34 | 108 | 9.7 | 16.1 | 0.00 | 0.00 | 0.00 | 53 | 1013.9 |
| 20260906174552 | 34 | 164 | 8.0 | 16.1 | 0.00 | 0.00 | 0.00 | 56 | 1014.1 |
| 20260906174037 | 33 | 126 | 8.0 | 16.1 | 0.00 | 0.00 | 0.00 | 54 | 1014.2 |
| 20260906173539 | 33 | 144 | 8.0 | 17.7 | 0.00 | 0.00 | 0.00 | 56 | 1014.3 |
| 20260906173101 | 33 | 128 | 9.7 | 24.1 | 0.00 | 0.00 | 0.00 | 54 | 1014.4 |
| 20260906172540 | 33 | 119 | 12.9 | 24.1 | 0.00 | 0.00 | 0.00 | 54 | 1014.4 |
| 20260906172038 | 33 | 155 | 6.4 | 19.3 | 0.00 | 0.00 | 0.00 | 55 | 1014.4 |
| 20260906171559 | 33 | 142 | 9.7 | 16.1 | 0.00 | 0.00 | 0.00 | 56 | 1014.5 |
| 20260906171037 | 33 | 197 | 6.4 | 20.9 | 0.00 | 0.00 | 0.00 | 56 | 1014.6 |
| 20260906170538 | 33 | 156 | 6.4 | 20.9 | 0.00 | 0.00 | 0.00 | 56 | 1014.7 |
| 20260906170106 | 33 | 196 | 8.0 | 14.5 | 0.00 | 0.00 | 0.00 | 59 | 1014.7 |
| 20260906165540 | 33 | 188 | 3.2 | 11.3 | 0.00 | 0.00 | 0.00 | 58 | 1014.7 |
| 20260906165041 | 32 | 128 | 4.8 | 12.9 | 0.00 | 0.00 | 0.00 | 58 | 1014.8 |
| 20260906164554 | 32 | 186 | 6.4 | 20.9 | 0.00 | 0.00 | 0.00 | 60 | 1014.8 |
| 20260906164038 | 33 | 198 | 9.7 | 20.9 | 0.00 | 0.00 | 0.00 | 60 | 1014.9 |
| 20260906163540 | 33 | 215 | 9.7 | 16.1 | 0.00 | 0.00 | 0.00 | 59 | 1014.9 |
| 20260906163102 | 33 | 142 | 9.7 | 16.1 | 0.00 | 0.00 | 0.00 | 57 | 1014.9 |
| 20260906162539 | 32 | 157 | 8.0 | 16.1 | 0.00 | 0.00 | 0.00 | 60 | 1014.8 |
| 20260906162039 | 32 | 123 | 8.0 | 16.1 | 0.00 | 0.00 | 0.00 | 60 | 1014.8 |
| 20260906161605 | 32 | 198 | 4.8 | 14.5 | 0.00 | 0.00 | 0.00 | 59 | 1014.7 |
| 20260906161038 | 32 | 150 | 6.4 | 14.5 | 0.00 | 0.00 | 0.00 | 60 | 1014.7 |
| 20260906160537 | 32 | 113 | 8.0 | 14.5 | 0.00 | 0.00 | 0.00 | 60 | 1014.8 |
| 20260906160113 | 32 | 135 | 3.2 | 14.5 | 0.00 | 0.00 | 0.00 | 61 | 1014.7 |
| 20260906155537 | 32 | 264 | 4.8 | 14.5 | 0.00 | 0.00 | 0.00 | 63 | 1014.7 |
| 20260906155038 | 32 | 113 | 4.8 | 14.5 | 0.00 | 0.00 | 0.00 | 63 | 1014.6 |
| 20260906154603 | 31 | 153 | 4.8 | 12.9 | 0.00 | 0.00 | 0.00 | 65 | 1014.6 |
| 20260906154037 | 31 | 259 | 1.6 | 6.4 | 0.00 | 0.00 | 0.00 | 71 | 1014.7 |
| 20260906153537 | 31 | 246 | 3.2 | 6.4 | 0.00 | 0.00 | 0.00 | 71 | 1014.6 |
| 20260906153100 | 31 | 293 | 1.6 | 6.4 | 0.00 | 0.00 | 0.00 | 71 | 1014.6 |
| 20260906152541 | 31 | 279 | 3.2 | 6.4 | 0.00 | 0.00 | 0.00 | 71 | 1014.6 |
| 20260906152037 | 31 | 281 | 1.6 | 4.8 | 0.00 | 0.00 | 0.00 | 70 | 1014.5 |
| 20260906151609 | 31 | 227 | 1.6 | 6.4 | 0.00 | 0.00 | 0.00 | 69 | 1014.4 |
| 20260906151038 | 32 | 157 | 1.6 | 6.4 | 0.00 | 0.00 | 0.00 | 67 | 1014.4 |
| 20260906150538 | 31 | 44 | 0.0 | 6.4 | 0.00 | 0.00 | 0.00 | 68 | 1014.3 |
| 20260906150105 | 31 | 92 | 1.6 | 6.4 | 0.00 | 0.00 | 0.00 | 68 | 1014.4 |
| 20260906145539 | 31 | 26 | 0.0 | 6.4 | 0.00 | 0.00 | 0.00 | 70 | 1014.3 |
| 20260906145039 | 30 | 0 | 0.0 | 6.4 | 0.00 | 0.00 | 0.00 | 72 | 1014.3 |
| 20260906144608 | 30 | 0 | 0.0 | 4.8 | 0.00 | 0.00 | 0.00 | 73 | 1014.3 |
| 20260906144038 | 30 | 245 | 0.0 | 1.6 | 0.00 | 0.00 | 0.00 | 74 | 1014.4 |
| 20260906143538 | 29 | 0 | 0.0 | 3.2 | 0.00 | 0.00 | 0.00 | 73 | 1014.4 |
| 20260906143056 | 29 | 0 | 0.0 | 3.2 | 0.00 | 0.00 | 0.00 | 73 | 1014.4 |
| 20260906142538 | 29 | 0 | 1.6 | 3.2 | 0.00 | 0.00 | 0.00 | 74 | 1014.5 |
| 20260906142040 | 29 | 223 | 0.0 | 3.2 | 0.00 | 0.00 | 0.00 | 74 | 1014.5 |
| 20260906141555 | 29 | 0 | 0.0 | 3.2 | 0.00 | 0.00 | 0.00 | 75 | 1014.5 |
| 20260906141040 | 29 | 249 | 0.0 | 3.2 | 0.00 | 0.00 | 0.00 | 74 | 1014.5 |
| 20260906140543 | 29 | 249 | 1.6 | 3.2 | 0.00 | 0.00 | 0.00 | 73 | 1014.5 |
| 20260906140059 | 30 | 156 | 0.0 | 3.2 | 0.00 | 0.00 | 0.00 | 73 | 1014.6 |
| 20260906135538 | 30 | 156 | 0.0 | 3.2 | 0.00 | 0.00 | 0.00 | 73 | 1014.6 |
| 20260906135042 | 29 | 0 | 0.0 | 3.2 | 0.00 | 0.00 | 0.00 | 74 | 1014.5 |
| 20260906134600 | 29 | 0 | 0.0 | 3.2 | 0.00 | 0.00 | 0.00 | 77 | 1014.4 |
| 20260906134040 | 28 | 0 | 0.0 | 3.2 | 0.00 | 0.00 | 0.00 | 78 | 1014.4 |
| 20260906133538 | 28 | 0 | 0.0 | 4.8 | 0.00 | 0.00 | 0.00 | 79 | 1014.4 |
| 20260906133115 | 28 | 155 | 1.6 | 4.8 | 0.00 | 0.00 | 0.00 | 79 | 1014.4 |
| 20260906132539 | 27 | 130 | 0.0 | 4.8 | 0.00 | 0.00 | 0.00 | 81 | 1014.4 |
| 20260906132039 | 27 | 99 | 0.0 | 4.8 | 0.00 | 0.00 | 0.00 | 82 | 1014.4 |
| 20260906131554 | 27 | 114 | 0.0 | 4.8 | 0.00 | 0.00 | 0.00 | 82 | 1014.4 |
| 20260906131037 | 27 | 119 | 0.0 | 4.8 | 0.00 | 0.00 | 0.00 | 83 | 1014.4 |
| 20260906130540 | 26 | 116 | 1.6 | 4.8 | 0.00 | 0.00 | 0.00 | 83 | 1014.4 |
| 20260906130058 | 26 | 0 | 0.0 | 4.8 | 0.00 | 0.00 | 0.00 | 83 | 1014.3 |
| 20260906125539 | 26 | 0 | 0.0 | 4.8 | 0.00 | 0.00 | 0.00 | 84 | 1014.2 |
| 20260906125039 | 26 | 0 | 0.0 | 4.8 | 0.00 | 0.00 | 0.00 | 84 | 1014.3 |
| 20260906124557 | 26 | 0 | 0.0 | 3.2 | 0.00 | 0.00 | 0.00 | 83 | 1014.2 |
| 20260906124041 | 26 | 0 | 0.0 | 4.8 | 0.00 | 0.00 | 0.00 | 83 | 1014.2 |
| 20260906123607 | 26 | 0 | 0.0 | 4.8 | 0.00 | 0.00 | 0.00 | 83 | 1014.1 |
| 20260906123053 | 26 | 88 | 1.6 | 4.8 | 0.00 | 0.00 | 0.00 | 83 | 1014.0 |
| 20260906122537 | 26 | 0 | 1.6 | 4.8 | 0.00 | 0.00 | 0.00 | 83 | 1014.0 |
| 20260906122039 | 26 | 94 | 1.6 | 4.8 | 0.00 | 0.00 | 0.00 | 83 | 1013.9 |
| 20260906121552 | 26 | 101 | 1.6 | 4.8 | 0.00 | 0.00 | 0.00 | 83 | 1013.9 |
| 20260906121037 | 26 | 113 | 1.6 | 4.8 | 0.00 | 0.00 | 0.00 | 83 | 1013.8 |
| 20260906120537 | 26 | 117 | 1.6 | 3.2 | 0.00 | 0.00 | 0.00 | 83 | 1013.7 |
| 20260906120100 | 26 | 117 | 1.6 | 3.2 | 0.00 | 0.00 | 0.00 | 82 | 1013.7 |
| 20260906115535 | 26 | 0 | 0.0 | 3.2 | 0.00 | 0.00 | 0.00 | 82 | 1013.7 |
| 20260906115038 | 26 | 0 | 0.0 | 3.2 | 0.00 | 0.00 | 0.00 | 82 | 1013.7 |
| 20260906114610 | 26 | 0 | 1.6 | 4.8 | 0.00 | 0.00 | 0.00 | 82 | 1013.7 |
| 20260906114038 | 26 | 115 | 1.6 | 4.8 | 0.00 | 0.00 | 0.00 | 82 | 1013.7 |
| 20260906113537 | 26 | 123 | 0.0 | 4.8 | 0.00 | 0.00 | 0.00 | 81 | 1013.7 |
| 20260906113057 | 26 | 0 | 1.6 | 4.8 | 0.00 | 0.00 | 0.00 | 81 | 1013.6 |
| 20260906112538 | 27 | 134 | 0.0 | 4.8 | 0.00 | 0.00 | 0.00 | 81 | 1013.6 |
| 20260906112038 | 27 | 105 | 0.0 | 4.8 | 0.00 | 0.00 | 0.00 | 81 | 1013.4 |
| 20260906111603 | 27 | 107 | 1.6 | 4.8 | 0.00 | 0.00 | 0.00 | 81 | 1013.4 |
| 20260906111039 | 27 | 133 | 1.6 | 6.4 | 0.00 | 0.00 | 0.00 | 81 | 1013.4 |
| 20260906110541 | 27 | 144 | 3.2 | 6.4 | 0.00 | 0.00 | 0.00 | 81 | 1013.4 |
| 20260906110100 | 27 | 135 | 3.2 | 8.0 | 0.00 | 0.00 | 0.00 | 81 | 1013.4 |
| 20260906105538 | 27 | 115 | 3.2 | 8.0 | 0.00 | 0.00 | 0.00 | 81 | 1013.3 |
| 20260906105039 | 27 | 141 | 3.2 | 8.0 | 0.00 | 0.00 | 0.00 | 81 | 1013.2 |
| 20260906104618 | 27 | 132 | 0.0 | 4.8 | 0.00 | 0.00 | 0.00 | 80 | 1013.2 |
| 20260906104037 | 27 | 0 | 0.0 | 0.0 | 0.00 | 0.00 | 0.00 | 80 | 1013.1 |
| 20260906103536 | 27 | 0 | 0.0 | 0.0 | 0.00 | 0.00 | 0.00 | 80 | 1013.1 |
| 20260906103057 | 27 | 0 | 0.0 | 0.0 | 0.00 | 0.00 | 0.00 | 80 | 1013.1 |
| 20260906102538 | 27 | 0 | 0.0 | 0.0 | 0.00 | 0.00 | 0.00 | 80 | 1013.1 |
| 20260906102036 | 27 | 0 | 0.0 | 0.0 | 0.00 | 0.00 | 0.00 | 80 | 1013.1 |
| 20260906101556 | 27 | 0 | 0.0 | 1.6 | 0.00 | 0.00 | 0.00 | 79 | 1013.1 |
| 20260906101037 | 27 | 0 | 0.0 | 3.2 | 0.00 | 0.00 | 0.00 | 79 | 1013.1 |
| 20260906100539 | 27 | 0 | 0.0 | 3.2 | 0.00 | 0.00 | 0.00 | 79 | 1013.0 |
| 20260906100055 | 27 | 0 | 0.0 | 3.2 | 0.00 | 0.00 | 0.00 | 79 | 1013.0 |
| 20260906095538 | 27 | 130 | 0.0 | 6.4 | 0.00 | 0.00 | 0.00 | 79 | 1013.0 |
| 20260906095040 | 27 | 129 | 1.6 | 6.4 | 0.00 | 0.00 | 0.00 | 78 | 1012.9 |
| 20260906094554 | 27 | 153 | 1.6 | 8.0 | 0.00 | 0.00 | 0.00 | 79 | 1012.9 |
| 20260906094038 | 27 | 176 | 1.6 | 11.3 | 0.00 | 0.00 | 0.00 | 79 | 1012.9 |
| 20260906093538 | 27 | 166 | 3.2 | 11.3 | 0.00 | 0.00 | 0.00 | 79 | 1012.8 |
| 20260906093129 | 27 | 191 | 3.2 | 12.9 | 0.00 | 0.00 | 0.00 | 78 | 1012.7 |
| 20260906092539 | 27 | 186 | 4.8 | 12.9 | 0.00 | 0.00 | 0.00 | 78 | 1012.7 |
| 20260906092042 | 28 | 179 | 4.8 | 12.9 | 0.00 | 0.00 | 0.00 | 78 | 1012.6 |
| 20260906091556 | 28 | 173 | 6.4 | 14.5 | 0.00 | 0.00 | 0.00 | 79 | 1012.7 |
| 20260906091039 | 28 | 192 | 6.4 | 14.5 | 0.00 | 0.00 | 0.00 | 79 | 1012.6 |
| 20260906090541 | 28 | 200 | 8.0 | 14.5 | 0.00 | 0.00 | 0.00 | 79 | 1012.7 |
| 20260906090054 | 28 | 191 | 8.0 | 17.7 | 0.00 | 0.00 | 0.00 | 79 | 1012.5 |
| 20260906085541 | 28 | 194 | 9.7 | 17.7 | 0.00 | 0.00 | 0.00 | 79 | 1012.5 |
| 20260906085043 | 28 | 142 | 8.0 | 16.1 | 0.00 | 0.00 | 0.00 | 78 | 1012.5 |
| 20260906084601 | 28 | 176 | 8.0 | 16.1 | 0.00 | 0.00 | 0.00 | 79 | 1012.5 |
| 20260906084039 | 28 | 180 | 8.0 | 16.1 | 0.00 | 0.00 | 0.00 | 78 | 1012.5 |
| 20260906083540 | 28 | 172 | 6.4 | 12.9 | 0.00 | 0.00 | 0.00 | 79 | 1012.4 |
| 20260906083056 | 28 | 153 | 4.8 | 12.9 | 0.00 | 0.00 | 0.00 | 78 | 1012.4 |
| 20260906082539 | 28 | 189 | 4.8 | 11.3 | 0.00 | 0.00 | 0.00 | 79 | 1012.4 |
| 20260906082041 | 28 | 150 | 3.2 | 8.0 | 0.00 | 0.00 | 0.00 | 78 | 1012.4 |
| 20260906081557 | 28 | 155 | 3.2 | 8.0 | 0.00 | 0.00 | 0.00 | 78 | 1012.3 |
| 20260906081039 | 28 | 134 | 3.2 | 9.7 | 0.00 | 0.00 | 0.00 | 78 | 1012.3 |
| 20260906080542 | 28 | 126 | 4.8 | 9.7 | 0.00 | 0.00 | 0.00 | 77 | 1012.4 |
| 20260906080057 | 28 | 143 | 4.8 | 9.7 | 0.00 | 0.00 | 0.00 | 77 | 1012.5 |
| 20260906075540 | 28 | 145 | 4.8 | 9.7 | 0.00 | 0.00 | 0.00 | 77 | 1012.5 |
| 20260906075039 | 28 | 163 | 4.8 | 8.0 | 0.00 | 0.00 | 0.00 | 77 | 1012.5 |
| 20260906074604 | 28 | 166 | 3.2 | 8.0 | 0.00 | 0.00 | 0.00 | 77 | 1012.5 |
| 20260906074039 | 28 | 169 | 1.6 | 8.0 | 0.00 | 0.00 | 0.00 | 76 | 1012.4 |
| 20260906073540 | 28 | 190 | 3.2 | 8.0 | 0.00 | 0.00 | 0.00 | 76 | 1012.5 |
| 20260906073101 | 28 | 162 | 4.8 | 9.7 | 0.00 | 0.00 | 0.00 | 75 | 1012.5 |
| 20260906072540 | 28 | 152 | 3.2 | 9.7 | 0.00 | 0.00 | 0.00 | 75 | 1012.6 |
| 20260906072040 | 28 | 174 | 4.8 | 9.7 | 0.00 | 0.00 | 0.00 | 75 | 1012.7 |
| 20260906071559 | 28 | 138 | 3.2 | 8.0 | 0.00 | 0.00 | 0.00 | 74 | 1012.9 |
| 20260906071040 | 28 | 148 | 3.2 | 8.0 | 0.00 | 0.00 | 0.00 | 74 | 1012.8 |
| 20260906070540 | 28 | 156 | 3.2 | 6.4 | 0.00 | 0.00 | 0.00 | 74 | 1012.8 |
| 20260906070112 | 28 | 148 | 3.2 | 6.4 | 0.00 | 0.00 | 0.00 | 74 | 1012.9 |
| 20260906065543 | 28 | 143 | 3.2 | 11.3 | 0.00 | 0.00 | 0.00 | 73 | 1012.8 |
| 20260906065040 | 28 | 148 | 3.2 | 11.3 | 0.00 | 0.00 | 0.00 | 73 | 1012.8 |
| 20260906064603 | 28 | 126 | 1.6 | 8.0 | 0.00 | 0.00 | 0.00 | 73 | 1012.9 |
| 20260906064039 | 28 | 134 | 3.2 | 8.0 | 0.00 | 0.00 | 0.00 | 72 | 1012.9 |
| 20260906063538 | 28 | 176 | 1.6 | 8.0 | 0.00 | 0.00 | 0.00 | 72 | 1012.9 |
| 20260906063058 | 28 | 122 | 3.2 | 9.7 | 0.00 | 0.00 | 0.00 | 73 | 1012.8 |
| 20260906062538 | 28 | 130 | 4.8 | 9.7 | 0.00 | 0.00 | 0.00 | 73 | 1012.8 |
| 20260906062036 | 28 | 178 | 4.8 | 9.7 | 0.00 | 0.00 | 0.00 | 73 | 1012.7 |
| 20260906061600 | 29 | 125 | 3.2 | 9.7 | 0.00 | 0.00 | 0.00 | 73 | 1012.7 |
| 20260906061039 | 29 | 139 | 3.2 | 9.7 | 0.00 | 0.00 | 0.00 | 73 | 1012.8 |
| 20260906060538 | 29 | 156 | 3.2 | 8.0 | 0.00 | 0.00 | 0.00 | 72 | 1012.8 |
| 20260906060055 | 29 | 128 | 3.2 | 8.0 | 0.00 | 0.00 | 0.00 | 72 | 1012.8 |
| 20260906055540 | 29 | 137 | 1.6 | 8.0 | 0.00 | 0.00 | 0.00 | 73 | 1012.8 |
| 20260906055036 | 29 | 155 | 3.2 | 8.0 | 0.00 | 0.00 | 0.00 | 72 | 1012.8 |
| 20260906054607 | 29 | 178 | 4.8 | 8.0 | 0.00 | 0.00 | 0.00 | 72 | 1012.7 |
| 20260906054040 | 29 | 198 | 3.2 | 6.4 | 0.00 | 0.00 | 0.00 | 72 | 1012.8 |
| 20260906053539 | 30 | 0 | 3.2 | 6.4 | 0.00 | 0.00 | 0.00 | 71 | 1012.9 |
| 20260906053056 | 30 | 175 | 1.6 | 11.3 | 0.00 | 0.00 | 0.00 | 70 | 1012.9 |
| 20260906052538 | 30 | 146 | 1.6 | 11.3 | 0.00 | 0.00 | 0.00 | 70 | 1012.9 |
| 20260906052037 | 30 | 176 | 4.8 | 11.3 | 0.00 | 0.00 | 0.00 | 70 | 1012.8 |
| 20260906051558 | 30 | 140 | 4.8 | 11.3 | 0.00 | 0.00 | 0.00 | 70 | 1012.9 |
| 20260906051039 | 30 | 165 | 4.8 | 9.7 | 0.00 | 0.00 | 0.00 | 69 | 1012.9 |
| 20260906050541 | 30 | 134 | 4.8 | 9.7 | 0.00 | 0.00 | 0.00 | 69 | 1012.9 |
| 20260906050121 | 30 | 155 | 3.2 | 9.7 | 0.00 | 0.00 | 0.00 | 69 | 1012.9 |
| 20260906045539 | 30 | 155 | 3.2 | 9.7 | 0.00 | 0.00 | 0.00 | 69 | 1013.0 |
| 20260906045039 | 30 | 148 | 4.8 | 9.7 | 0.00 | 0.00 | 0.00 | 69 | 1012.9 |
| 20260906044553 | 30 | 153 | 4.8 | 12.9 | 0.00 | 0.00 | 0.00 | 69 | 1012.8 |
| 20260906044037 | 30 | 140 | 4.8 | 12.9 | 0.00 | 0.00 | 0.00 | 69 | 1012.9 |
| 20260906043539 | 30 | 132 | 6.4 | 12.9 | 0.00 | 0.00 | 0.00 | 68 | 1012.8 |
| 20260906043100 | 30 | 145 | 4.8 | 14.5 | 0.00 | 0.00 | 0.00 | 68 | 1012.8 |
| 20260906042535 | 30 | 162 | 6.4 | 14.5 | 0.00 | 0.00 | 0.00 | 68 | 1012.7 |
| 20260906042039 | 30 | 121 | 6.4 | 14.5 | 0.00 | 0.00 | 0.00 | 68 | 1012.7 |
| 20260906041555 | 30 | 161 | 4.8 | 12.9 | 0.00 | 0.00 | 0.00 | 68 | 1012.7 |
| 20260906041039 | 30 | 138 | 6.4 | 14.5 | 0.00 | 0.00 | 0.00 | 67 | 1012.7 |
| 20260906040535 | 30 | 170 | 6.4 | 14.5 | 0.00 | 0.00 | 0.00 | 67 | 1012.7 |
| 20260906040113 | 30 | 156 | 4.8 | 12.9 | 0.00 | 0.00 | 0.00 | 67 | 1012.8 |
| 20260906035536 | 30 | 144 | 4.8 | 12.9 | 0.00 | 0.00 | 0.00 | 66 | 1012.7 |
| 20260906035038 | 30 | 145 | 6.4 | 16.1 | 0.00 | 0.00 | 0.00 | 66 | 1012.8 |
| 20260906034554 | 30 | 146 | 6.4 | 16.1 | 0.00 | 0.00 | 0.00 | 65 | 1012.8 |
| 20260906034036 | 30 | 155 | 4.8 | 14.5 | 0.00 | 0.00 | 0.00 | 66 | 1012.8 |
| 20260906033536 | 31 | 115 | 8.0 | 16.1 | 0.00 | 0.00 | 0.00 | 65 | 1012.7 |
| 20260906033111 | 31 | 134 | 6.4 | 17.7 | 0.00 | 0.00 | 0.00 | 65 | 1012.7 |
| 20260906032544 | 31 | 136 | 9.7 | 17.7 | 0.00 | 0.00 | 0.00 | 64 | 1012.6 |
| 20260906032036 | 31 | 137 | 8.0 | 16.1 | 0.00 | 0.00 | 0.00 | 65 | 1012.8 |
| 20260906031605 | 31 | 163 | 8.0 | 19.3 | 0.00 | 0.00 | 0.00 | 64 | 1012.8 |
| 20260906031037 | 31 | 205 | 9.7 | 20.9 | 0.00 | 0.00 | 0.00 | 63 | 1012.9 |
| 20260906030536 | 31 | 215 | 11.3 | 20.9 | 0.00 | 0.00 | 0.00 | 64 | 1012.8 |
| 20260906030058 | 31 | 167 | 8.0 | 16.1 | 0.00 | 0.00 | 0.00 | 64 | 1012.9 |
| 20260906025535 | 31 | 160 | 4.8 | 11.3 | 0.00 | 0.00 | 0.00 | 64 | 1012.8 |
| 20260906025040 | 31 | 120 | 4.8 | 12.9 | 0.00 | 0.00 | 0.00 | 63 | 1012.8 |
| 20260906024617 | 31 | 128 | 6.4 | 12.9 | 0.00 | 0.00 | 0.00 | 62 | 1012.7 |
| 20260906024037 | 31 | 123 | 6.4 | 14.5 | 0.00 | 0.00 | 0.00 | 63 | 1012.7 |
| 20260906023536 | 31 | 128 | 4.8 | 17.7 | 0.00 | 0.00 | 0.00 | 62 | 1012.4 |
| 20260906023057 | 31 | 150 | 8.0 | 19.3 | 0.00 | 0.00 | 0.00 | 61 | 1012.3 |
| 20260906022541 | 31 | 138 | 11.3 | 19.3 | 0.00 | 0.00 | 0.00 | 61 | 1012.2 |
| 20260906022039 | 31 | 150 | 11.3 | 19.3 | 0.00 | 0.00 | 0.00 | 60 | 1012.1 |
| 20260906021605 | 32 | 144 | 9.7 | 25.7 | 0.00 | 0.00 | 0.00 | 60 | 1012.1 |
| 20260906021039 | 32 | 140 | 11.3 | 25.7 | 0.00 | 0.00 | 0.00 | 59 | 1012.0 |
| 20260906020539 | 32 | 140 | 14.5 | 22.5 | 0.00 | 0.00 | 0.00 | 58 | 1012.0 |
| 20260906020108 | 32 | 150 | 14.5 | 22.5 | 0.00 | 0.00 | 0.00 | 57 | 1012.0 |
| 20260906015538 | 32 | 132 | 12.9 | 27.4 | 0.00 | 0.00 | 0.00 | 56 | 1012.0 |
| 20260906015039 | 33 | 120 | 14.5 | 27.4 | 0.00 | 0.00 | 0.00 | 55 | 1011.8 |
| 20260906014607 | 33 | 197 | 14.5 | 27.4 | 0.00 | 0.00 | 0.00 | 55 | 1011.7 |
| 20260906014039 | 33 | 144 | 12.9 | 25.7 | 0.00 | 0.00 | 0.00 | 54 | 1011.6 |
| 20260906013539 | 33 | 156 | 12.9 | 24.1 | 0.00 | 0.00 | 0.00 | 55 | 1011.3 |
| 20260906013056 | 34 | 145 | 9.7 | 17.7 | 0.00 | 0.00 | 0.00 | 54 | 1011.3 |
| 20260906012539 | 34 | 144 | 9.7 | 17.7 | 0.00 | 0.00 | 0.00 | 52 | 1011.3 |
| 20260906012039 | 34 | 150 | 4.8 | 12.9 | 0.00 | 0.00 | 0.00 | 51 | 1011.2 |
| 20260906011558 | 35 | 138 | 3.2 | 11.3 | 0.00 | 0.00 | 0.00 | 49 | 1011.1 |
| 20260906011040 | 35 | 128 | 4.8 | 14.5 | 0.00 | 0.00 | 0.00 | 49 | 1011.0 |
| 20260906010539 | 35 | 131 | 6.4 | 14.5 | 0.00 | 0.00 | 0.00 | 48 | 1011.1 |
| 20260906010108 | 35 | 134 | 6.4 | 14.5 | 0.00 | 0.00 | 0.00 | 48 | 1011.0 |
| 20260906005539 | 35 | 142 | 8.0 | 14.5 | 0.00 | 0.00 | 0.00 | 47 | 1011.0 |
| 20260906005041 | 35 | 140 | 6.4 | 14.5 | 0.00 | 0.00 | 0.00 | 47 | 1011.0 |
| 20260906004600 | 35 | 92 | 4.8 | 17.7 | 0.00 | 0.00 | 0.00 | 47 | 1011.0 |
| 20260906004039 | 35 | 152 | 9.7 | 17.7 | 0.00 | 0.00 | 0.00 | 46 | 1011.1 |
| 20260906003540 | 35 | 153 | 6.4 | 14.5 | 0.00 | 0.00 | 0.00 | 47 | 1011.0 |
| 20260906003100 | 35 | 155 | 8.0 | 19.3 | 0.00 | 0.00 | 0.00 | 46 | 1011.0 |
| 20260906002539 | 35 | 154 | 9.7 | 19.3 | 0.00 | 0.00 | 0.00 | 46 | 1011.0 |
| 20260906002040 | 35 | 134 | 8.0 | 14.5 | 0.00 | 0.00 | 0.00 | 47 | 1010.9 |
| 20260906001558 | 36 | 145 | 6.4 | 12.9 | 0.00 | 0.00 | 0.00 | 46 | 1011.0 |
| 20260906001038 | 36 | 142 | 4.8 | 14.5 | 0.00 | 0.00 | 0.00 | 47 | 1011.0 |
| 20260906000538 | 36 | 138 | 4.8 | 16.1 | 0.00 | 0.00 | 0.00 | 46 | 1011.0 |
| 20260906000107 | 36 | 186 | 9.7 | 16.1 | 0.00 | 0.00 | 0.00 | 45 | 1010.9 |
| 20260905235539 | 36 | 138 | 6.4 | 16.1 | 0.00 | 0.00 | 0.00 | 46 | 1010.8 |
| 20260905235039 | 35 | 148 | 6.4 | 11.3 | 0.00 | 0.00 | 0.00 | 47 | 1010.8 |
| 20260905234613 | 35 | 101 | 1.6 | 8.0 | 0.00 | 0.00 | 0.00 | 53 | 1010.7 |
| 20260905234038 | 35 | 229 | 1.6 | 4.8 | 0.00 | 0.00 | 0.00 | 49 | 1010.7 |
| 20260905233536 | 35 | 238 | 3.2 | 4.8 | 0.00 | 0.00 | 0.00 | 55 | 1010.8 |
| 20260905233058 | 35 | 0 | 0.0 | 6.4 | 0.00 | 0.00 | 0.00 | 54 | 1010.7 |
| 20260905232539 | 35 | 267 | 0.0 | 12.9 | 0.00 | 0.00 | 0.00 | 56 | 1010.7 |
| 20260905232036 | 35 | 227 | 4.8 | 12.9 | 0.00 | 0.00 | 0.00 | 61 | 1010.7 |
| 20260905231556 | 35 | 202 | 6.4 | 9.7 | 0.00 | 0.00 | 0.00 | 50 | 1010.7 |
| 20260905231038 | 35 | 223 | 1.6 | 6.4 | 0.00 | 0.00 | 0.00 | 53 | 1010.8 |
| 20260905230539 | 35 | 305 | 3.2 | 6.4 | 0.00 | 0.00 | 0.00 | 50 | 1010.8 |
| 20260905230129 | 35 | 301 | 1.6 | 9.7 | 0.00 | 0.00 | 0.00 | 52 | 1010.8 |
| 20260905225542 | 35 | 272 | 4.8 | 9.7 | 0.00 | 0.00 | 0.00 | 55 | 1010.8 |